Location: Mountain Grove
(34.0887°N, 86.6172°W)
Time: 21:55:03
(UTC+00:00)

Cosmos 1743 - Pass Details

Date: 14 July 2020
Orbit: 511 x 526 km, 82.6° (Epoch: 08 August)

Event Time Altitude Azimuth Distance (km) Brightness Sun altitude
Exits shadow 09:22:58 22° 269° (W) 1,165 4.0 -15.1°
Maximum altitude 09:23:31 23° 282° (WNW) 1,140 4.1 -15.1°
Drops below altitude 10° 09:26:35 10° 336° (NNW) 1,745 5.6 -14.6°
Sets 09:29:05 0° 351° (N) 2,639 6.7 -14.2°
